Overview Statistics Trail Chart Weather Telemetry Raw packets
 

This is the latest recevied weather packets stored in our database for station/object DL2GPS-3. If no packets are shown the sender has not sent any weather packets the latest 10 day(s).

<< 52 53 54 55 56 57 58 >>
Time Temp. Humidity Pressure Rain* Wind** Luminosity Snow
1787889717 19.44° C 10% - - - - -
1787889112 18.89° C 10% - - - - -
1787888507 20° C 95% 1015.3 hPa - - - -
1787887901 20° C 93% 1015.5 hPa - - - -
1787887296 20.56° C 90% 1015.6 hPa - - - -
1787886692 20.56° C 92% 1014.9 hPa - - - -
1787886087 20.56° C 92% 1015.1 hPa - - - -
1787885481 20.56° C 92% 1015.1 hPa - - - -
1787884876 20.56° C 93% 1015.1 hPa - - - -
1787884271 20° C 93% 1015 hPa - - - -
1787883665 20° C 93% 1015 hPa - - - -
1787883061 20° C 92% 1015.3 hPa - - - -
1787882456 20° C 90% 1015.2 hPa - - - -
1787881850 20.56° C 89% 1015.1 hPa - - - -
1787881245 20.56° C 89% 1015.4 hPa - - - -
1787880640 20.56° C 88% 1015.4 hPa - - - -
1787880035 20.56° C 87% 1015.5 hPa - - - -
1787879431 20.56° C 86% 1015.7 hPa - - - -
1787878825 21.11° C 85% 1015.7 hPa - - - -
1787878219 20.56° C 84% 1015.7 hPa - - - -
1787877614 20.56° C 82% 1015.5 hPa - - - -
1787877010 20.56° C 80% 1015.6 hPa - - - -
1787876404 20.56° C 80% 1015.6 hPa - - - -
1787875799 20.56° C 79% 1015.7 hPa - - - -
1787875194 20.56° C 78% 1015.7 hPa - - - -

* Rain since midnight (hover to see other rain measurements)
** Current wind speed in m/s (hover to see current wind gust speed)